SBONWEB Weather Reports


Display with metric or nautical units.
time (UTC)temp
F
wind
direction
speed
MPH
gust
MPH
rain 1hr
in
rain 24hr
in
rain mn
in
humidity
%
barometer
mb
20260505065403 52 223 3.0 6.0 0.14 0.23 0.23 94 1013.5
20260505064503 52 258 3.0 6.0 0.13 0.21 0.21 93 1013.6
20260505063818 52 338 3.0 5.0 0.10 0.17 0.17 93 1013.6
20260505062703 52 322 3.0 5.0 0.08 0.13 0.13 92 1013.4
20260505061803 52 229 5.0 10.0 0.08 0.12 0.12 92 1013.3
20260505060903 52 220 5.0 12.0 0.07 0.10 0.10 92 1013.3
20260505060218 52 219 4.0 12.0 0.07 0.09 0.09 91 1013.2
20260505055617 52 218 4.0 11.0 0.06 0.09 0.09 91 1013.2
20260505054503 52 222 5.0 12.0 0.06 0.08 0.08 90 1013.2
20260505053603 52 222 5.0 14.0 0.06 0.07 0.07 90 1012.9
20260505052703 52 225 4.0 12.0 0.04 0.06 0.06 89 1012.7
20260505051803 52 222 5.0 10.0 0.03 0.04 0.04 88 1012.9
20260505051118 52 220 5.0 11.0 0.02 0.03 0.03 88 1012.9
20260505040903 54 218 1.0 2.0 0.01 0.01 0.01 86 1012.7
20260505040217 54 196 2.0 3.0 0.00 0.00 0.00 84 1012.6
20260505035403 54 198 2.0 4.0 0.00 0.00 0.00 82 1012.7
20260505034718 54 196 1.0 4.0 0.00 0.00 0.00 80 1012.6
20260505033817 55 183 0.0 3.0 0.00 0.00 0.00 79 1012.6
20260505032916 56 0 0.0 0.0 0.00 0.00 0.00 77 1012.6
20260505031803 56 0 0.0 0.0 0.00 0.00 0.00 73 1012.7
20260505030903 57 0 0.0 0.0 0.00 0.00 0.00 72 1012.7
20260505030003 57 0 0.0 0.0 0.00 0.00 0.00 69 1012.7
20260505025403 57 214 1.0 2.0 0.00 0.00 0.00 68 1012.7
20260505024503 57 202 2.0 5.0 0.00 0.00 0.00 69 1012.8
20260505023603 57 215 3.0 6.0 0.00 0.00 0.00 69 1012.9
20260505022703 57 214 2.0 7.0 0.00 0.00 0.00 70 1013.1
20260505021803 57 220 2.0 5.0 0.00 0.00 0.00 71 1013.3
20260505020903 57 225 1.0 5.0 0.00 0.00 0.00 72 1013.4
20260505020003 56 204 1.0 4.0 0.00 0.00 0.00 73 1013.6
20260505015403 56 200 1.0 3.0 0.00 0.00 0.00 74 1013.5
20260505014503 56 202 0.0 3.0 0.00 0.00 0.00 75 1013.6
20260505013603 56 181 1.0 2.0 0.00 0.00 0.00 75 1013.8
20260505012703 56 178 1.0 4.0 0.00 0.00 0.00 75 1013.9
20260505011803 56 182 2.0 5.0 0.00 0.00 0.00 74 1014.0
20260505010903 56 173 1.0 6.0 0.00 0.00 0.00 73 1014.2
20260505010003 57 182 2.0 6.0 0.00 0.00 0.00 73 1014.1
20260505005617 57 184 2.0 6.0 0.00 0.00 0.00 73 1014.3
20260505004503 57 185 2.0 8.0 0.00 0.00 0.00 73 1014.5
20260505003818 57 182 2.0 7.0 0.00 0.00 0.00 74 1014.8
20260505002703 57 172 1.0 6.0 0.00 0.00 0.00 75 1014.9
20260505001803 57 181 1.0 4.0 0.00 0.00 0.00 76 1015.0
20260505000903 57 133 0.0 2.0 0.00 0.00 0.00 75 1015.3
20260505000218 57 0 0.0 0.0 0.00 0.00 0.00 75 1015.1
20260504235403 57 133 1.0 1.0 0.00 0.00 0.00 74 1015.3
20260504234503 57 130 2.0 3.0 0.00 0.00 0.00 74 1015.4
20260504233603 57 128 1.0 3.0 0.00 0.00 0.00 74 1015.6
20260504232703 58 166 0.0 3.0 0.00 0.00 0.00 74 1015.6
20260504231803 58 185 0.0 2.0 0.00 0.00 0.00 74 1015.6
20260504231118 58 0 0.0 0.0 0.00 0.00 0.00 73 1015.7
20260504230003 58 189 1.0 1.0 0.00 0.00 0.00 73 1015.7
20260504225403 58 186 1.0 3.0 0.00 0.00 0.00 73 1015.8
20260504224503 58 186 1.0 4.0 0.00 0.00 0.00 73 1016.0
20260504223603 58 197 2.0 3.0 0.00 0.00 0.00 73 1016.0
20260504222919 57 195 1.0 3.0 0.00 0.00 0.00 73 1016.0
20260504221803 58 185 0.0 2.0 0.00 0.00 0.00 73 1016.2
20260504220903 58 184 0.0 1.0 0.00 0.00 0.00 72 1016.1
20260504220217 58 184 0.0 1.0 0.00 0.00 0.00 71 1016.2
20260504215403 58 184 0.0 1.0 0.00 0.00 0.00 71 1016.2
20260504214717 58 182 0.0 3.0 0.00 0.00 0.00 71 1016.4
20260504213603 58 185 1.0 2.0 0.00 0.00 0.00 71 1016.5
20260504212703 58 184 0.0 2.0 0.00 0.00 0.00 71 1016.5
20260504212018 58 184 0.0 1.0 0.00 0.00 0.00 70 1016.6
20260504210903 59 184 1.0 2.0 0.00 0.00 0.00 70 1016.7
20260504210218 59 179 1.0 2.0 0.00 0.00 0.00 69 1016.7
20260504205618 59 181 1.0 3.0 0.00 0.00 0.00 69 1016.7
20260504204503 59 185 1.0 4.0 0.00 0.00 0.00 69 1016.7
20260504203816 59 177 1.0 4.0 0.00 0.00 0.00 69 1016.8
20260504202703 58 161 0.0 2.0 0.00 0.00 0.00 70 1016.8
20260504201803 58 163 0.0 5.0 0.00 0.00 0.00 70 1016.8
20260504200903 58 138 0.0 2.0 0.00 0.00 0.00 72 1016.7
20260504200003 58 0 0.0 0.0 0.00 0.00 0.00 72 1016.6
20260504195403 58 0 0.0 0.0 0.00 0.00 0.00 72 1016.5
20260504194503 58 0 0.0 0.0 0.00 0.00 0.00 72 1016.5
20260504193603 59 0 0.0 0.0 0.00 0.00 0.00 72 1016.4
20260504192703 59 0 0.0 0.0 0.00 0.00 0.00 70 1016.2
20260504192017 59 0 0.0 0.0 0.00 0.00 0.00 70 1016.3
20260504190908 60 180 1.0 2.0 0.00 0.00 0.00 67 1016.1
20260504190003 61 180 1.0 2.0 0.00 0.00 0.00 66 1016.2
20260504185403 61 180 1.0 2.0 0.00 0.00 0.00 65 1016.1
20260504184503 62 180 0.0 1.0 0.00 0.00 0.00 65 1016.1
20260504183603 63 180 0.0 1.0 0.00 0.00 0.00 63 1016.0
20260504182917 63 180 0.0 1.0 0.00 0.00 0.00 62 1016.0
20260504181803 64 179 0.0 2.0 0.00 0.00 0.00 62 1016.0
20260504180903 64 179 0.0 1.0 0.00 0.00 0.00 61 1016.0
20260504180003 64 0 0.0 0.0 0.00 0.00 0.00 61 1016.1
20260504175403 65 0 0.0 0.0 0.00 0.00 0.00 62 1016.0
20260504174503 65 179 0.0 1.0 0.00 0.00 0.00 59 1016.0
20260504173604 66 179 1.0 2.0 0.00 0.00 0.00 56 1016.0
20260504172703 66 170 1.0 3.0 0.00 0.00 0.00 51 1016.0
20260504171803 66 176 1.0 3.0 0.00 0.00 0.00 49 1016.0
20260504171117 66 170 1.0 3.0 0.00 0.00 0.00 50 1016.0
20260504170217 66 148 2.0 4.0 0.00 0.00 0.00 50 1016.0
20260504150903 68 151 3.0 7.0 0.00 0.00 0.00 47 1016.6
20260504140903 68 176 4.0 8.0 0.00 0.00 0.00 49 1017.0
20260504130217 67 124 3.0 7.0 0.00 0.00 0.00 46 1017.7
20260504100218 65 172 2.0 6.0 0.00 0.00 0.00 48 1018.6
20260504081803 63 158 2.0 4.0 0.00 0.00 0.00 47 1018.4
20260504080903 63 131 1.0 4.0 0.00 0.00 0.00 47 1018.4
20260504080217 63 100 1.0 2.0 0.00 0.00 0.00 46 1018.4